Stations météo

réclame
Mon MeteoGroup
Rodkallen, Suède (2188): Température de l'air & dewpoint: 12.10.2018 03:00:00 - 18.10.2018 03:00:00 (CEST)Rodkallen, Suède (2188): Vitesse du vent & gusts: 12.10.2018 03:00:00 - 18.10.2018 03:00:00 (CEST)Rodkallen, Suède (2188): Direction du vent: 12.10.2018 03:00:00 - 18.10.2018 03:00:00 (CEST)Rodkallen, Suède (2188): visibility: 12.10.2018 03:00:00 - 18.10.2018 03:00:00 (CEST)Rodkallen, Suède (2188): Quantités de précipitations: 12.10.2018 03:00:00 - 18.10.2018 03:00:00 (CEST)
Date & Time tt [°C] td [°C] ff [km/h] ff [knt] fx [km/h] fx [knt] dd vv [km] rr [mm]
18.10.2018 03:00:00 7,7 6,0 25 13 34 19 SW 50 0,1
18.10.2018 02:00:00 7,5 6,0 19 11 29 16 SW 50 0,0
18.10.2018 01:00:00 7,5 6,0 24 13 31 17 WSW 50 0,0
18.10.2018 00:00:00 7,7 6,2 27 15 31 17 WSW 50 0,0
17.10.2018 23:00:00 8,2 6,7 22 12 28 15 SW 50 0,0
17.10.2018 22:00:00 8,1 7,0 22 12 28 15 SW 50 0,0
17.10.2018 21:00:00 8,2 7,4 22 12 27 15 SW 50 0,0
17.10.2018 20:00:00 8,0 7,7 17 9 30 16 WSW 50 0,0
17.10.2018 19:00:00 8,0 7,9 20 11 36 19 WSW 14 0,0
17.10.2018 18:00:00 8,1 8,0 26 14 41 22 SW 1,7 0,0
17.10.2018 17:00:00 8,4 8,3 30 16 41 22 SSW 0,6 0,0
17.10.2018 16:00:00 8,4 8,1 32 18 40 22 S 2,5 0,2
17.10.2018 15:00:00 8,4 8,1 29 16 40 21 S 3,4 0,8
17.10.2018 14:00:00 8,2 7,8 29 16 40 21 SSE 4,3 0,5
17.10.2018 13:00:00 8,0 7,6 32 18 41 22 S 3,5 0,3
17.10.2018 12:00:00 8,0 7,1 35 19 41 22 S 3,5 0,0
17.10.2018 11:00:00 8,2 6,8 34 18 41 22 S 43 0,0
17.10.2018 10:00:00 7,8 6,9 33 18 44 24 S 42 0,0
17.10.2018 09:00:00 8,0 7,1 34 18 44 24 S 46 0,0
17.10.2018 08:00:00 8,2 7,1 34 19 40 22 S 49 0,0
17.10.2018 07:00:00 8,2 6,5 31 17 36 19 S 50 0,0
17.10.2018 06:00:00 8,2 5,8 26 14 32 17 S 50 0,0
17.10.2018 05:00:00 7,8 5,9 23 12 29 16 S 50 0,0
17.10.2018 04:00:00 7,5 5,3 19 10 21 11 S 50 0,0
17.10.2018 03:00:00 7,4 5,0 16 9 24 13 SSW 50 0,0
17.10.2018 02:00:00 7,5 4,6 17 9 24 13 SW 50 0,0
17.10.2018 01:00:00 7,6 5,2 21 11 23 13 SSW 50 0,0
17.10.2018 00:00:00 7,7 4,6 14 8 20 11 SSW 50 0,0
16.10.2018 23:00:00 7,8 4,4 18 10 20 11 SW 50 0,0
16.10.2018 22:00:00 7,9 4,5 17 9 21 11 SW 50 0,0
16.10.2018 21:00:00 8,1 4,9 14 8 27 14 WSW 50 0,0
16.10.2018 20:00:00 8,2 5,3 17 9 27 14 SW 50 0,0
16.10.2018 19:00:00 8,6 5,0 21 12 26 14 SW 50 0,0
16.10.2018 18:00:00 8,8 4,8 22 12 26 14 SW 50 0,0
16.10.2018 17:00:00 9,0 5,6 19 10 23 12 SW 50 0,0
16.10.2018 16:00:00 9,0 5,6 18 10 22 12 SW 50 0,0
16.10.2018 15:00:00 9,5 5,5 16 8 21 11 SW 50 0,0
16.10.2018 14:00:00 8,8 4,6 16 8 29 15 SW 50 0,0
16.10.2018 13:00:00 8,3 3,5 18 10 29 15 WSW 49 0,0
16.10.2018 12:00:00 7,9 2,6 20 11 27 14 WSW 43 0,0
16.10.2018 11:00:00 7,7 3,4 14 7 31 17 WSW 50 0,0
16.10.2018 10:00:00 7,2 3,3 24 13 31 17 W 50 0,0
16.10.2018 09:00:00 7,1 3,5 20 11 27 14 W 50 0,0
16.10.2018 08:00:00 6,6 3,4 18 10 23 13 W 50 0,0
16.10.2018 07:00:00 6,9 3,5 20 11 23 12 W 50 0,0
16.10.2018 06:00:00 7,4 4,2 14 8 18 10 WNW 50 0,0
16.10.2018 05:00:00 7,2 4,2 13 7 17 9 WNW 50 0,0
16.10.2018 04:00:00 7,2 4,0 11 6 15 8 NW 50 0,0
16.10.2018 03:00:00 7,4 4,4 8 4 15 8 NW 50 0,0
16.10.2018 02:00:00 7,6 4,5 9 5 15 8 NW 50 0,0
16.10.2018 01:00:00 7,9 4,8 9 5 15 8 N 50 0,0
16.10.2018 00:00:00 8,0 5,3 7 4 15 8 NNW 50 0,0
15.10.2018 23:00:00 8,5 5,8 8 5 13 7 N 50 0,0
15.10.2018 22:00:00 8,1 6,4 6 4 10 6 NW 50 0,0
15.10.2018 21:00:00 8,5 6,3 5 3 12 6 N 50 0,1
15.10.2018 20:00:00 9,0 5,9 9 5 14 8 N 50 0,0
15.10.2018 19:00:00 9,4 5,0 9 5 14 8 NNW 50 0,0
15.10.2018 18:00:00 9,2 5,9 7 4 13 7 NNW 50 0,0
15.10.2018 17:00:00 9,2 7,1 8 5 13 7 W 50 0,0
15.10.2018 16:00:00 9,2 7,3 10 5 14 8 WSW 50 0,0
15.10.2018 15:00:00 9,4 7,2 10 5 23 13 W 50 0,0
15.10.2018 14:00:00 9,7 6,6 13 7 30 16 W 50 0,0
15.10.2018 13:00:00 9,8 6,0 22 12 30 16 W 50 0,0
15.10.2018 12:00:00 10,0 6,3 21 12 30 16 W 50 0,0
15.10.2018 11:00:00 10,1 7,9 23 13 41 22 W 38 0,0
15.10.2018 10:00:00 9,3 8,2 25 13 45 24 SW 11 0,0
15.10.2018 09:00:00 9,4 8,2 35 19 49 26 SSW 10 0,0
15.10.2018 08:00:00 9,2 8,3 39 21 52 28 SSW 8 0,0
15.10.2018 07:00:00 9,2 8,3 42 23 56 30 SSW 7 0,0
15.10.2018 06:00:00 9,1 8,2 43 23 56 30 S 7 0,0
15.10.2018 05:00:00 9,2 8,3 43 23 55 30 S 6 0,0
15.10.2018 04:00:00 9,3 8,2 46 25 59 32 S 7 0,0
15.10.2018 03:00:00 9,5 8,3 46 25 61 33 S 8 0,0
15.10.2018 02:00:00 9,5 8,3 49 26 61 33 S 8 0,0
15.10.2018 01:00:00 9,7 8,5 48 26 58 32 S 8 0,0
15.10.2018 00:00:00 9,7 8,3 42 23 63 34 S 8 0,0
14.10.2018 23:00:00 9,8 8,2 48 26 63 34 S 8 0,0
14.10.2018 22:00:00 9,9 8,3 51 28 62 34 S 9 0,0
14.10.2018 21:00:00 9,9 8,5 49 26 61 33 S 8 0,0
14.10.2018 20:00:00 10,3 8,7 49 26 60 32 S 10 0,0
14.10.2018 19:00:00 10,3 8,9 46 25 60 32 S 11 0,0
14.10.2018 18:00:00 10,4 9,0 46 25 54 29 S 12 0,0
14.10.2018 17:00:00 10,2 9,0 44 24 53 29 S 11 0,0
14.10.2018 16:00:00 10,3 9,1 43 23 53 29 S 11 0,0
14.10.2018 15:00:00 10,3 9,2 45 25 53 29 S 10 0,0
14.10.2018 14:00:00 10,5 9,3 40 21 51 28 S 12 0,0
14.10.2018 13:00:00 10,6 9,4 40 22 49 26 S 13 0,0
14.10.2018 12:00:00 10,3 9,2 34 19 46 25 SSE 12 0,0
14.10.2018 11:00:00 10,2 9,1 38 20 46 25 S 11 0,0
14.10.2018 10:00:00 10,4 9,5 36 20 46 25 S 11 0,0
14.10.2018 09:00:00 10,1 9,3 37 20 48 26 S 10 0,0
14.10.2018 08:00:00 10,0 9,2 38 21 49 26 S 10 0,0
14.10.2018 07:00:00 10,0 9,2 39 21 52 28 S 9 0,0
14.10.2018 06:00:00 10,2 9,4 39 21 54 29 S 10 0,0
14.10.2018 05:00:00 11,1 9,8 44 24 51 28 S 15 0,0
14.10.2018 04:00:00 10,4 9,6 34 18 41 22 S 12 0,0
14.10.2018 03:00:00 10,2 9,4 35 19 42 23 S 10 0,0
14.10.2018 02:00:00 10,2 9,4 35 19 42 23 S 10 0,0
14.10.2018 01:00:00 10,4 9,6 35 19 40 22 S 11 0,0
14.10.2018 00:00:00 10,1 9,5 30 16 41 22 S 8 0,0
13.10.2018 23:00:00 9,9 9,1 33 18 41 22 S 7 0,0
13.10.2018 22:00:00 10,0 9,1 35 19 41 22 S 7 0,0
13.10.2018 21:00:00 10,1 9,2 27 14 41 22 S 8 0,0
13.10.2018 20:00:00 10,2 9,1 32 18 41 22 SSW 8 0,0
13.10.2018 19:00:00 10,0 8,9 31 17 44 24 S 7 0,0
13.10.2018 18:00:00 9,9 9,0 36 19 45 25 S 7 0,0
13.10.2018 17:00:00 9,6 8,8 37 20 49 26 S 5 0,0
13.10.2018 16:00:00 9,6 8,8 36 20 54 29 S 6 0,0
13.10.2018 15:00:00 9,6 9,0 40 22 54 29 S 6 0,0
13.10.2018 14:00:00 9,8 9,1 45 24 54 29 S 7 0,0
13.10.2018 13:00:00 9,8 9,7 42 23 53 28 S 7 0,0
13.10.2018 12:00:00 8,8 8,7 32 18 47 26 S 0,8 0,1
13.10.2018 11:00:00 8,9 8,8 38 20 50 27 S 0,5 0,0
13.10.2018 10:00:00 8,8 8,7 34 18 50 27 S 1,6 0,0
13.10.2018 09:00:00 8,5 8,4 42 23 52 28 S 1,0 0,0
13.10.2018 08:00:00 8,4 8,3 43 23 52 28 S 1,3 0,0
13.10.2018 07:00:00 8,7 8,4 35 19 43 23 S 1,5 0,0
13.10.2018 06:00:00 8,3 8,0 28 15 40 22 S 2,0 0,0
13.10.2018 05:00:00 7,9 7,5 28 15 32 17 SSE 4,2 0,0
13.10.2018 04:00:00 7,9 7,3 18 10 29 16 S 7 0,0
13.10.2018 03:00:00 8,1 7,3 18 10 32 18 SW 8 0,0
13.10.2018 02:00:00 7,9 7,3 26 14 32 18 SSW 6 0,0
13.10.2018 01:00:00 7,8 7,4 18 10 25 13 SSW 7 0,0
13.10.2018 00:00:00 7,7 7,3 13 7 28 15 SSW 4,0 0,0
12.10.2018 23:00:00 8,2 7,8 17 9 34 18 SW 4,3 0,0
12.10.2018 22:00:00 8,3 8,0 22 12 34 18 SSW 3,3 0,0
12.10.2018 21:00:00 8,4 8,0 24 13 39 21 S 6 0,0
12.10.2018 20:00:00 8,3 8,0 26 14 39 21 S 6 0,0
12.10.2018 19:00:00 8,2 7,8 31 17 37 20 S 4,9 0,0
12.10.2018 18:00:00 8,3 7,7 24 13 29 15 S 8 0,0
12.10.2018 17:00:00 8,4 8,1 18 10 22 12 S 3,6 0,0
12.10.2018 16:00:00 7,4 7,0 4 2 9 5 NNE 10 0,0
12.10.2018 15:00:00 7,1 6,5 7 4 15 8 NNW 7 0,0
12.10.2018 14:00:00 7,9 7,1 6 4 15 8 WSW 19 0,0
12.10.2018 13:00:00 8,2 7,3 10 5 19 10 WSW 23 0,0
12.10.2018 12:00:00 8,3 7,5 14 8 28 15 WSW 29 0,0
12.10.2018 11:00:00 8,4 7,8 15 8 28 15 SW 25 0,0
12.10.2018 10:00:00 8,5 8,2 21 12 35 19 SSW 8 0,0
12.10.2018 09:00:00 8,7 8,6 26 14 35 19 SSW 8 0,0
12.10.2018 08:00:00 8,5 8,4 27 15 34 19 S 5 0,0
12.10.2018 07:00:00 8,3 8,2 14 8 40 22 SW 0,6 0,0
12.10.2018 06:00:00 8,5 8,4 19 10 40 22 SSW 0,5 0,0
12.10.2018 05:00:00 8,7 8,6 26 14 40 22 SSW 19 0,0
12.10.2018 04:00:00 8,1 8,0 33 18 40 22 SSW 14 0,0
12.10.2018 03:00:00 8,1 8,0 23 13 34 18 SSW 1,0 0,0

tt = Température de l'air
td = dewpoint
ff = Vitesse du vent
fx = gusts
dd = Direction du vent
vv = visibility
rr = Quantités de précipitations

stations d'obs. à proximité